User: anonymous   Login
Location: Fauquembergues
(50.6005°N, 2.0987°E)
Time: 22:36:50
(UTC+00:00)
Language:

ATLAS 5 CENTAUR R/B - Orbit

View from above orbital plane
View from above orbital plane
View from above satellite
View from above satellite

Ground track
Ground track

The orbit data is extracted from the following two-line orbital elements,

1 32379U 07060B   20270.07255826  .00010175  00000-0  94442-3 0  9993
2 32379  60.7039 129.4034 5135558  93.0036 324.2907  5.43822022 23647
Epoch (UTC): 26 September 2020 01:44:29
Eccentricity: 0.5135558
inclination: 60.7039°
perigee height: 266 km
apogee height: 14296 km
right ascension of ascending node: 129.4034°
argument of perigee: 93.0036°
revolutions per day: 5.43822022
mean anomaly at epoch: 324.2907°
orbit number at epoch: 2364

The dashed part of the orbit path shows where the satellite is in the earth's shadow,  

DLR